Record,Date/Time,10,Tamb(K),Rh(%),Pres(mb),Tir(K),Rain,Az(deg),El(deg),TkBB(K), Ch  22.234, Ch  23.034, Ch  23.834, Ch  26.234, Ch  30.000, Ch  51.248, Ch  52.280, Ch  53.848, Ch  54.940, Ch  56.660, Ch  57.288, Ch  58.800, Ch 
Record,Date/Time,40,Tamb(K),Rh(%),Pres(mb),Tir(K),Rain
Record,Date/Time,50,Az(deg),El(deg),TkBB(K), Ch  22.000, Ch  22.234, Ch  22.500, Ch  23.000, Ch  23.034, Ch  23.500, Ch  23.834, Ch  24.000, Ch  24.500, Ch  25.000, Ch  25.500, Ch  26.000, Ch  26.234, Ch  26.500, Ch  27.000, Ch  27.500, Ch  28.000, Ch  28.500, Ch  29.000, Ch  29.500, Ch  30.000, Ch  51.248, Ch  51.760, Ch  52.280, Ch  52.804, Ch  53.336, Ch  53.848, Ch  54.400, Ch  54.940, Ch  55.500, Ch  56.020, Ch  56.660, Ch  57.288, Ch  57.964, Ch  58.800, Ch 
Record,Date/Time,80,ID,SNR,Tamb(K),Rh(%),Pres(mb),Tir(K),Rain,Az(deg),El(deg),TkBB(K), Ch  22.234, Ch  23.034, Ch  23.834, Ch  26.234, Ch  30.000, Ch  51.248, Ch  52.280, Ch  53.848, Ch  54.940, Ch  56.660, Ch  57.288, Ch  58.800, Ch 
     1,09/07/18 00:00:39,41, 289.1910,  78.3200,1014.7300, 229.1800,1
     2,09/07/18 00:01:16,51,  0.00, 19.80,301.710,114.174,117.985,117.908,112.599,,102.848, 96.912, 93.854, 84.893, 76.150, 71.563, 65.711,,, 61.076,, 56.880,, 55.071,, 55.507,226.769,245.783,266.135,281.513,290.227,292.970,292.919,291.893,289.942,288.931,287.980,286.045,286.749,287.516,
     3,09/07/18 00:01:35,51,  0.00, 90.00,301.696, 48.761, 50.378, 50.038, 47.754,, 42.957, 40.741, 39.629, 35.870, 31.910, 30.827, 28.164,,, 26.895,, 24.944,, 24.695,, 25.133,117.124,135.317,161.271,193.292,230.573,263.467,284.798,292.403,293.628,292.456,292.403,288.858,290.974,290.940,
     4,09/07/18 00:01:53,51,  0.00,160.20,301.737,111.215,115.368,114.325,109.817,,100.394, 94.387, 91.278, 83.121, 75.048, 69.972, 64.622,,, 59.846,, 55.321,, 53.791,, 54.939,216.843,236.508,258.476,276.522,288.526,293.070,293.192,292.680,290.538,289.384,288.547,285.936,287.360,287.470,
     5,09/07/18 00:02:17,41, 288.9130,  78.7900,1014.7460, 233.3000,1
     6,09/07/18 00:02:54,51,  0.00, 19.80,301.675,114.440,118.578,118.130,112.894,,103.192, 97.127, 94.232, 84.951, 76.563, 71.703, 65.500,,, 60.567,, 57.013,, 55.411,, 56.398,226.857,245.363,265.076,281.599,289.990,293.129,292.766,291.986,289.987,288.261,287.904,286.314,287.332,286.930,
     7,09/07/18 00:03:13,51,  0.00, 90.00,301.696, 48.599, 50.317, 50.030, 47.774,, 43.138, 40.729, 39.917, 36.485, 32.684, 30.495, 28.692,,, 26.806,, 25.357,, 25.354,, 26.116,117.388,135.535,160.676,193.618,230.416,263.975,284.569,292.327,293.580,292.491,292.243,288.924,290.990,290.541,
     8,09/07/18 00:03:31,51,  0.00,160.20,301.686,111.504,115.660,114.935,109.734,,100.649, 94.439, 91.544, 82.841, 75.499, 69.676, 64.229,,, 59.730,, 55.754,, 54.854,, 55.703,217.035,236.405,257.661,276.862,288.369,292.991,293.357,292.473,290.619,288.495,288.375,286.677,287.825,286.899,
     9,09/07/18 00:03:55,41, 288.9800,  79.0800,1014.8660, 234.7400,1
    10,09/07/18 00:04:32,51,  0.00, 19.80,301.642,114.393,118.435,117.911,112.253,,103.201, 96.750, 93.816, 85.042, 76.536, 71.239, 65.371,,, 60.603,, 56.917,, 54.793,, 56.264,227.157,245.918,265.491,281.269,290.148,293.164,293.096,291.303,290.408,288.025,287.132,285.714,287.101,287.924,
    11,09/07/18 00:04:51,51,  0.00, 90.00,301.625, 48.429, 49.842, 49.756, 47.228,, 43.393, 40.446, 39.300, 36.223, 32.333, 30.570, 27.790,,, 26.697,, 25.540,, 25.237,, 25.923,117.581,135.353,160.915,193.609,230.797,264.397,285.822,292.736,294.758,292.493,292.624,289.261,291.047,291.502,
    12,09/07/18 00:05:10,51,  0.00,160.20,301.660,111.294,115.301,114.933,109.769,,100.727, 94.206, 91.634, 82.859, 75.145, 69.749, 64.390,,, 59.978,, 56.293,, 54.973,, 55.774,217.473,236.771,258.418,276.817,288.751,293.273,293.745,292.517,291.263,289.072,288.101,286.959,287.420,287.973,
    13,09/07/18 00:05:33,41, 288.9950,  79.2400,1014.8380, 229.8700,1
    14,09/07/18 00:06:10,51,  0.00, 19.80,301.597,114.810,118.261,118.334,112.654,,102.846, 96.944, 94.348, 85.351, 76.718, 72.027, 65.135,,, 60.992,, 57.033,, 55.269,, 55.478,227.003,245.850,265.633,281.766,290.102,292.709,292.350,291.257,289.991,288.297,287.294,286.253,286.242,286.804,
    15,09/07/18 00:06:29,51,  0.00, 90.00,301.596, 48.659, 50.225, 50.489, 47.657,, 43.293, 40.935, 39.851, 36.350, 32.617, 30.419, 28.345,,, 26.825,, 25.463,, 25.358,, 25.325,117.468,135.477,161.414,194.287,230.458,263.834,285.203,292.345,294.443,292.728,292.127,289.159,290.254,291.235,
    16,09/07/18 00:06:48,51,  0.00,160.20,301.597,111.613,115.475,115.085,110.093,,100.150, 94.169, 91.992, 83.179, 75.348, 70.099, 64.563,,, 59.898,, 55.877,, 54.531,, 55.304,216.756,236.324,258.238,277.325,287.964,292.913,293.515,292.320,290.857,289.120,288.166,286.305,287.008,287.165,
    17,09/07/18 00:07:12,41, 288.9130,  79.6100,1014.7380, 227.1800,1
    18,09/07/18 00:07:49,51,  0.00, 19.80,301.558,114.736,118.841,118.170,112.778,,103.403, 97.576, 93.884, 85.377, 76.970, 71.786, 65.503,,, 61.053,, 57.336,, 55.172,, 56.302,227.051,245.811,265.608,281.922,290.863,293.071,293.027,291.553,290.365,288.490,288.531,285.933,287.252,286.474,
    19,09/07/18 00:08:07,51,  0.00, 90.00,301.553, 48.832, 50.844, 50.271, 47.962,, 43.570, 40.726, 39.748, 36.358, 32.813, 30.832, 28.265,,, 27.039,, 25.540,, 25.357,, 26.206,117.562,135.407,161.211,194.189,231.008,263.850,285.187,292.672,294.763,292.761,292.895,289.259,291.150,291.242,
    20,09/07/18 00:08:26,51,  0.00,160.20,301.514,111.631,115.685,115.225,109.864,,100.773, 94.700, 91.508, 83.046, 75.762, 70.301, 64.343,,, 60.018,, 56.215,, 54.538,, 55.915,217.267,236.362,258.315,277.285,289.164,292.874,293.793,292.234,291.120,289.217,288.865,286.580,287.720,287.087,
    21,09/07/18 00:08:50,41, 288.8160,  79.8100,1014.8040, 227.0600,1
    22,09/07/18 00:09:27,51,  0.00, 19.80,301.493,114.873,118.781,118.200,112.687,,103.147, 97.218, 93.774, 85.305, 76.724, 71.495, 65.624,,, 61.030,, 56.906,, 55.053,, 55.873,227.035,245.196,265.380,281.128,290.392,292.837,292.722,291.762,289.546,287.536,287.490,286.073,286.098,286.927,
    23,09/07/18 00:09:46,51,  0.00, 90.00,301.462, 48.499, 50.391, 49.881, 47.572,, 43.650, 40.407, 39.537, 36.411, 32.367, 30.613, 28.170,,, 27.439,, 25.873,, 25.461,, 26.147,117.986,135.404,161.359,194.106,231.010,263.734,284.816,292.564,293.929,292.871,292.529,289.659,290.621,290.670,
    24,09/07/18 00:10:05,51,  0.00,160.20,301.413,111.864,116.112,115.402,110.802,,101.248, 94.942, 92.291, 83.829, 75.986, 70.842, 65.093,,, 60.731,, 56.711,, 55.615,, 56.327,217.503,236.460,258.004,276.609,288.486,292.571,293.352,292.288,290.241,288.862,288.331,286.842,286.875,287.119,
    25,09/07/18 00:10:28,41, 288.6200,  80.3300,1014.7680, 243.5900,1
    26,09/07/18 00:11:05,51,  0.00, 19.80,301.389,114.728,118.794,118.429,112.814,,102.952, 97.308, 93.609, 85.548, 76.915, 72.055, 65.631,,, 61.751,, 57.370,, 55.807,, 56.014,227.070,246.565,265.625,281.733,290.214,293.338,291.857,291.434,289.979,288.249,287.401,286.089,287.160,287.239,
    27,09/07/18 00:11:24,51,  0.00, 90.00,301.377, 48.913, 51.093, 50.429, 48.159,, 43.373, 41.206, 39.767, 36.516, 33.200, 31.296, 28.629,,, 27.590,, 25.683,, 26.290,, 26.057,118.084,136.184,161.592,194.184,231.183,264.125,284.656,292.387,294.565,293.176,292.521,288.970,291.465,291.428,
    28,09/07/18 00:11:43,51,  0.00,160.20,301.379,111.768,116.244,115.202,110.433,,100.910, 95.376, 91.870, 83.768, 75.822, 70.700, 64.864,,, 60.663,, 56.410,, 55.778,, 56.148,217.401,237.161,258.319,277.118,288.965,293.090,293.221,292.323,290.831,289.354,288.169,286.065,287.700,287.629,
    29,09/07/18 00:12:06,41, 288.7450,  80.3700,1014.6800, 239.9800,1
    30,09/07/18 00:12:43,51,  0.00, 19.80,301.351,115.077,118.397,118.130,112.723,,103.406, 96.984, 93.694, 85.466, 76.782, 71.206, 65.560,,, 61.233,, 57.185,, 55.104,, 55.984,227.193,245.589,265.530,281.602,290.400,293.023,292.508,291.893,290.351,287.571,287.956,285.982,286.934,286.970,
    31,09/07/18 00:13:02,51,  0.00, 90.00,301.286, 49.092, 50.742, 50.547, 48.815,, 44.473, 41.253, 39.777, 36.811, 32.781, 31.236, 28.735,,, 27.213,, 25.633,, 25.482,, 26.469,118.387,136.068,161.608,194.409,230.404,264.013,285.343,292.594,294.731,292.547,293.097,289.109,291.300,290.764,
    32,09/07/18 00:13:21,51,  0.00,160.20,301.332,111.442,115.634,114.740,110.267,,101.208, 95.106, 91.856, 83.499, 75.497, 70.332, 65.266,,, 60.192,, 56.776,, 55.292,, 56.221,217.784,236.520,257.784,277.297,288.726,293.035,293.283,292.363,291.164,288.529,288.167,286.229,287.528,287.524,
    33,09/07/18 00:13:45,41, 288.7730,  79.7700,1014.6140, 241.5400,1
    34,09/07/18 00:14:22,51,  0.00, 19.80,301.270,114.945,118.680,118.273,112.537,,102.883, 96.922, 93.562, 85.069, 76.674, 71.726, 65.298,,, 60.802,, 57.064,, 55.852,, 56.165,226.984,245.686,265.347,281.591,290.297,293.424,292.523,291.939,289.866,288.223,287.641,286.182,287.602,287.215,
    35,09/07/18 00:14:40,51,  0.00, 90.00,301.267, 49.282, 50.616, 50.818, 48.137,, 43.902, 41.295, 40.031, 36.903, 33.189, 31.909, 28.790,,, 27.572,, 25.888,, 26.476,, 26.809,117.948,135.767,160.975,194.017,230.835,264.116,284.711,292.472,293.975,292.711,292.682,289.257,291.675,290.784,
    36,09/07/18 00:14:59,51,  0.00,160.20,301.288,111.435,115.313,115.084,110.236,,100.703, 94.579, 91.643, 83.476, 75.565, 70.362, 64.636,,, 60.442,, 56.468,, 55.625,, 56.259,216.894,236.485,258.038,276.899,288.518,293.433,293.455,292.403,290.881,289.371,288.100,286.521,287.718,287.172,
    37,09/07/18 00:15:23,41, 288.8860,  79.6400,1014.5440, 243.1100,1
    38,09/07/18 00:16:00,51,  0.00, 19.80,301.230,114.904,118.585,118.306,112.973,,102.541, 97.268, 94.117, 85.426, 76.686, 71.648, 65.734,,, 61.182,, 57.057,, 55.527,, 56.287,227.193,245.917,265.841,281.500,290.008,293.076,292.209,291.992,290.019,287.429,287.509,285.813,286.813,287.083,
    39,09/07/18 00:16:19,51,  0.00, 90.00,301.204, 49.618, 50.920, 50.964, 48.852,, 44.114, 41.871, 40.733, 37.269, 33.789, 31.387, 29.139,,, 27.651,, 25.989,, 26.330,, 26.847,118.556,136.225,161.756,194.298,231.090,264.145,284.778,292.704,294.122,291.871,292.468,288.576,291.080,290.774,
    40,09/07/18 00:16:38,51,  0.00,160.20,301.174,111.495,115.576,114.558,110.190,,100.138, 94.607, 91.639, 83.064, 75.557, 70.258, 64.675,,, 60.326,, 56.344,, 55.320,, 55.717,217.359,236.484,258.289,277.139,288.608,293.083,293.518,293.341,291.077,288.692,288.013,286.387,287.965,287.733,
    41,09/07/18 00:17:01,41, 288.8430,  80.4400,1014.6460, 230.2400,1
    42,09/07/18 00:17:38,51,  0.00, 19.80,301.173,114.818,118.639,118.483,112.833,,102.918, 97.310, 93.979, 85.589, 76.558, 71.869, 65.735,,, 61.345,, 57.321,, 55.468,, 56.689,227.165,245.262,265.520,281.969,289.956,293.025,292.067,290.960,289.560,287.890,287.457,285.860,286.986,286.004,
    43,09/07/18 00:17:57,51,  0.00, 90.00,301.184, 49.935, 51.362, 51.400, 49.118,, 44.325, 42.093, 40.631, 37.908, 33.839, 31.788, 28.962,,, 27.712,, 26.434,, 26.296,, 26.599,118.411,136.099,161.770,194.968,231.032,264.243,284.744,292.501,294.246,292.348,292.498,288.902,291.230,290.231,
    44,09/07/18 00:18:16,51,  0.00,160.20,301.198,110.888,115.092,114.581,109.572,,100.177, 94.516, 91.332, 83.738, 75.379, 70.323, 64.526,,, 59.805,, 56.186,, 54.977,, 55.745,216.928,236.239,258.040,277.283,288.792,292.993,293.439,292.404,291.079,288.741,288.503,286.596,287.493,286.568,
    45,09/07/18 00:18:40,41, 288.8700,  80.1800,1014.6600, 231.3400,1
    46,09/07/18 00:19:17,51,  0.00, 19.80,301.115,115.731,119.525,118.872,113.586,,103.412, 97.728, 94.512, 85.739, 77.352, 72.199, 66.240,,, 61.660,, 57.128,, 55.905,, 57.071,227.570,246.076,265.837,281.284,290.345,293.063,292.082,291.248,289.804,288.160,287.741,285.655,286.839,286.171,
    47,09/07/18 00:19:35,51,  0.00, 90.00,301.161, 50.242, 52.230, 51.480, 49.035,, 44.733, 42.457, 41.428, 37.966, 34.288, 31.807, 29.704,,, 28.505,, 26.642,, 26.618,, 26.976,119.203,136.897,162.215,194.354,231.567,264.306,284.642,292.182,294.317,292.981,292.405,289.119,290.982,290.257,
    48,09/07/18 00:19:54,51,  0.00,160.20,301.149,111.100,115.450,114.495,109.566,,100.357, 94.411, 91.600, 82.981, 76.007, 70.102, 64.671,,, 60.504,, 56.388,, 55.543,, 56.532,217.738,236.652,258.286,276.686,288.999,292.623,292.702,291.743,290.944,289.137,288.330,286.207,287.592,286.407,
    49,09/07/18 00:20:18,41, 288.5500,  80.8600,1014.5760, 261.9000,1
    50,09/07/18 00:20:55,51,  0.00, 19.80,301.081,115.904,119.144,118.958,113.420,,103.784, 97.371, 94.633, 85.708, 76.982, 71.690, 66.377,,, 61.706,, 57.392,, 56.288,, 56.643,227.104,246.107,265.442,281.624,290.357,293.310,293.037,291.908,289.947,288.085,287.427,285.846,287.001,287.993,
    51,09/07/18 00:21:14,51,  0.00, 90.00,301.089, 50.578, 51.402, 51.909, 49.264,, 45.192, 42.146, 40.761, 37.849, 34.123, 31.900, 29.975,,, 28.454,, 26.629,, 27.232,, 27.314,118.878,136.766,161.808,194.797,231.273,264.385,285.449,292.479,294.096,292.490,292.420,289.278,290.963,291.555,
    52,09/07/18 00:21:32,51,  0.00,160.20,301.053,111.074,114.484,114.088,109.035,,100.502, 94.098, 91.157, 82.981, 75.602, 70.614, 64.892,,, 60.224,, 56.510,, 55.735,, 56.288,217.306,237.156,258.242,277.167,288.375,292.974,293.572,292.629,290.943,288.675,287.922,286.571,287.908,287.924,
    53,09/07/18 00:21:56,41, 288.5230,  80.9700,1014.7320, 233.5300,1
    54,09/07/18 00:22:33,51,  0.00, 19.80,301.000,115.837,119.596,118.950,113.174,,103.825, 97.733, 94.818, 85.944, 77.488, 72.193, 66.307,,, 61.328,, 57.460,, 55.536,, 56.554,227.243,246.213,264.922,281.440,290.215,292.739,292.277,291.195,289.625,288.378,287.278,286.036,287.262,287.015,
    55,09/07/18 00:22:52,51,  0.00, 90.00,301.000, 50.519, 52.150, 51.918, 49.470,, 45.129, 42.031, 41.613, 38.062, 34.524, 32.732, 29.745,,, 28.569,, 26.988,, 26.959,, 27.258,119.417,137.336,162.134,195.292,231.688,264.391,284.833,291.831,293.736,292.434,292.571,289.560,290.851,290.959,
    56,09/07/18 00:23:11,51,  0.00,160.20,300.988,111.186,114.823,113.843,109.014,,100.306, 93.869, 91.639, 83.353, 75.901, 70.427, 65.066,,, 60.189,, 56.675,, 55.061,, 56.277,217.502,237.006,257.653,277.015,288.501,292.470,292.741,292.160,290.489,288.529,288.003,285.942,287.500,287.542,
    57,09/07/18 00:23:35,41, 288.4680,  81.4700,1014.8160, 239.7300,1
    58,09/07/18 00:24:12,51,  0.00, 19.80,300.906,115.928,119.271,118.940,113.461,,104.190, 97.944, 94.593, 86.268, 77.352, 72.451, 66.630,,, 61.842,, 57.681,, 56.055,, 57.031,227.550,245.539,265.924,281.392,289.954,292.875,292.096,291.712,289.797,288.243,287.276,285.842,286.914,286.007,
    59,09/07/18 00:24:31,51,  0.00, 90.00,300.909, 50.796, 52.218, 51.808, 49.384,, 45.526, 42.345, 41.213, 37.919, 34.313, 32.717, 30.274,,, 28.595,, 26.926,, 27.287,, 27.857,119.579,137.338,162.782,194.960,231.169,263.947,284.415,292.337,293.898,292.759,292.448,288.718,290.801,290.581,
    60,09/07/18 00:24:50,51,  0.00,160.20,300.904,111.119,115.013,114.111,109.427,,100.422, 94.382, 91.459, 83.472, 75.627, 70.429, 65.148,,, 60.789,, 56.990,, 55.740,, 56.531,217.926,236.940,258.673,277.131,288.034,292.893,293.055,292.054,290.904,288.712,288.153,285.980,287.340,287.325,
    61,09/07/18 00:25:14,41, 288.3820,  81.7800,1014.4980, 258.2600,1
    62,09/07/18 00:25:51,51,  0.00, 19.80,300.861,116.588,120.155,119.372,114.510,,104.996, 98.565, 95.279, 86.786, 78.213, 72.919, 66.813,,, 62.119,, 58.217,, 56.806,, 57.228,227.999,246.482,265.956,281.413,289.864,293.099,292.396,291.640,289.592,288.472,287.217,286.176,286.915,286.964,
    63,09/07/18 00:26:10,51,  0.00, 90.00,300.846, 50.914, 52.440, 51.841, 50.441,, 45.740, 43.364, 41.111, 38.864, 34.956, 32.642, 30.480,,, 28.817,, 27.384,, 27.633,, 28.140,120.105,138.195,163.129,195.311,231.466,264.458,284.940,292.563,293.898,293.334,292.150,288.860,290.618,291.014,
    64,09/07/18 00:26:29,51,  0.00,160.20,300.805,111.710,115.752,115.011,109.812,,101.381, 94.903, 91.990, 84.290, 76.342, 71.285, 65.497,,, 61.177,, 57.497,, 56.468,, 57.671,218.566,237.642,258.588,277.142,288.409,292.929,293.299,292.541,290.359,289.019,288.039,285.996,287.276,287.774,
    65,09/07/18 00:26:53,41, 288.3120,  81.9900,1014.6540, 250.3800,1
    66,09/07/18 00:27:30,51,  0.00, 19.80,300.765,116.821,120.559,119.979,114.371,,105.228, 98.987, 95.812, 86.754, 78.780, 73.215, 67.275,,, 63.114,, 58.928,, 57.417,, 57.988,228.197,246.742,265.659,281.250,290.505,293.119,292.162,291.778,289.956,287.479,287.366,285.824,286.891,286.687,
    67,09/07/18 00:27:49,51,  0.00, 90.00,300.761, 50.870, 52.843, 52.315, 50.080,, 46.048, 43.368, 42.485, 38.967, 35.641, 33.746, 31.043,,, 29.844,, 27.975,, 28.323,, 28.226,120.624,138.348,163.423,195.394,232.334,264.372,284.790,292.394,294.232,292.079,292.047,288.702,290.550,289.696,
    68,09/07/18 00:28:08,51,  0.00,160.20,300.760,111.822,116.130,115.032,110.165,,101.438, 95.038, 92.503, 84.231, 76.696, 71.443, 65.894,,, 61.786,, 57.725,, 57.010,, 58.150,218.575,237.794,258.555,277.130,289.038,292.911,293.160,292.366,290.740,288.551,287.814,286.299,287.295,286.853,
    69,09/07/18 00:28:31,41, 288.5070,  81.5600,1014.6900, 263.4900,1
    70,09/07/18 00:29:08,51,  0.00, 19.80,300.675,116.392,120.065,119.958,114.214,,104.672, 98.707, 95.573, 86.414, 77.759, 72.737, 67.292,,, 62.851,, 58.650,, 56.970,, 57.833,227.233,246.037,265.623,281.423,289.999,293.230,292.505,291.305,289.853,288.244,287.112,286.213,286.684,286.434,
    71,09/07/18 00:29:27,51,  0.00, 90.00,300.726, 50.971, 52.793, 52.454, 49.528,, 45.805, 42.639, 41.643, 37.949, 34.590, 32.817, 30.617,,, 29.347,, 27.785,, 27.812,, 28.470,119.664,137.671,162.794,194.835,231.755,264.559,285.130,292.556,293.950,292.465,292.005,288.677,290.743,290.348,
    72,09/07/18 00:29:46,51,  0.00,160.20,300.699,111.344,115.454,115.235,109.589,,101.018, 95.183, 91.973, 83.592, 75.871, 71.196, 65.625,,, 61.782,, 57.726,, 56.381,, 57.533,217.612,236.751,258.051,277.024,288.592,293.089,293.481,292.281,290.938,288.799,287.792,285.937,286.670,286.632,
    73,09/07/18 00:30:09,41, 288.3120,  81.8700,1014.7760, 258.1500,1
    74,09/07/18 00:30:46,51,  0.00, 19.80,300.654,117.153,121.024,120.698,114.874,,105.315, 99.643, 96.156, 87.754, 78.706, 73.790, 67.620,,, 63.290,, 59.176,, 57.760,, 58.925,228.626,246.648,266.319,281.578,290.080,293.200,293.277,291.751,289.600,288.426,287.838,286.480,286.958,286.754,
    75,09/07/18 00:31:05,51,  0.00, 90.00,300.651, 51.217, 52.758, 52.745, 50.474,, 45.725, 43.781, 42.848, 39.176, 35.349, 33.286, 30.971,,, 29.626,, 27.806,, 28.151,, 28.576,121.187,138.453,163.451,195.504,231.639,264.329,285.393,292.807,293.745,292.411,292.742,289.241,291.115,291.140,
    76,09/07/18 00:31:24,51,  0.00,160.20,300.649,111.614,115.504,114.972,110.040,,100.946, 95.217, 92.403, 83.959, 76.639, 71.336, 65.986,,, 61.390,, 57.226,, 56.256,, 57.286,218.573,237.665,258.928,277.639,288.676,293.123,293.971,292.578,290.551,288.891,288.467,287.040,287.415,287.825,
    77,09/07/18 00:31:48,41, 288.2690,  82.3300,1014.6000, 275.0400,1
    78,09/07/18 00:32:25,51,  0.00, 19.80,300.577,117.510,121.375,120.899,115.519,,105.803, 99.609, 96.312, 87.995, 79.083, 74.172, 68.075,,, 63.687,, 60.081,, 58.120,, 58.998,229.238,246.976,266.004,281.737,290.315,292.943,292.732,291.445,290.424,288.143,288.002,285.937,286.995,287.676,
    79,09/07/18 00:32:43,51,  0.00, 90.00,300.575, 51.050, 52.920, 52.727, 50.214,, 45.845, 43.075, 42.214, 39.125, 35.252, 33.071, 30.629,,, 29.390,, 28.296,, 28.068,, 28.448,121.205,138.801,163.547,195.707,231.765,264.320,285.026,292.601,294.329,292.568,293.004,288.976,290.684,291.473,
    80,09/07/18 00:33:02,51,  0.00,160.20,300.571,111.303,115.579,114.783,109.603,,100.833, 94.549, 91.500, 83.402, 76.006, 70.771, 65.460,,, 61.116,, 57.827,, 56.382,, 57.250,218.697,237.663,258.458,277.144,288.774,292.802,293.573,292.651,291.686,289.118,289.238,286.504,287.335,287.950,
    81,09/07/18 00:33:26,41, 288.2140,  82.5100,1014.5760, 264.8700,1
    82,09/07/18 00:34:03,51,  0.00, 19.80,300.505,117.003,121.425,120.949,114.917,,105.842, 99.396, 96.281, 87.458, 78.663, 74.415, 68.080,,, 63.454,, 59.966,, 58.741,, 59.806,228.432,246.558,265.959,281.963,290.379,292.884,292.701,291.671,290.016,288.062,287.850,286.240,287.362,287.730,
    83,09/07/18 00:34:22,51,  0.00, 90.00,300.510, 50.802, 52.868, 52.603, 49.998,, 46.264, 43.292, 41.948, 38.906, 34.835, 33.244, 30.983,,, 29.888,, 28.531,, 29.079,, 29.319,120.881,138.781,163.666,196.054,232.200,264.056,285.352,292.669,293.804,292.554,292.841,289.236,291.170,290.810,
    84,09/07/18 00:34:41,51,  0.00,160.20,300.502,110.358,115.140,114.220,108.741,,100.114, 93.787, 91.037, 82.904, 75.299, 70.407, 64.522,,, 60.795,, 57.212,, 56.447,, 57.127,218.259,236.828,258.957,277.074,289.154,293.096,294.039,292.912,291.382,289.966,288.616,286.479,288.287,287.846,
    85,09/07/18 00:35:04,41, 288.0190,  83.0000,1014.4700, 261.4400,1
    86,09/07/18 00:35:41,51,  0.00, 19.80,300.429,117.369,121.010,120.732,114.830,,105.714,100.035, 97.182, 88.013, 79.532, 74.302, 68.596,,, 63.976,, 60.290,, 58.179,, 59.871,228.736,246.933,265.992,282.163,290.230,293.050,292.893,291.963,290.591,288.362,287.841,285.616,286.895,286.936,
    87,09/07/18 00:36:00,51,  0.00, 90.00,300.395, 51.325, 52.867, 52.932, 50.212,, 46.127, 43.939, 42.825, 39.129, 35.689, 33.829, 31.489,,, 30.133,, 28.818,, 28.790,, 29.487,121.161,139.145,163.578,195.955,232.099,264.263,285.051,292.851,294.164,292.877,292.243,288.797,290.575,290.956,
    88,09/07/18 00:36:19,51,  0.00,160.20,300.426,110.770,114.835,114.221,108.701,, 99.798, 93.792, 91.588, 83.045, 75.336, 69.994, 64.866,,, 60.772,, 57.267,, 55.868,, 57.416,217.857,236.989,258.506,277.626,288.600,293.391,293.713,293.549,292.040,289.800,288.628,286.870,287.982,287.654,
    89,09/07/18 00:36:42,41, 287.8820,  83.1900,1014.4520, 250.9700,1
    90,09/07/18 00:37:19,51,  0.00, 19.80,300.296,117.373,121.185,120.446,115.547,,105.608, 99.979, 96.906, 87.564, 79.515, 74.685, 69.109,,, 64.722,, 60.632,, 59.156,, 59.764,229.419,247.215,266.443,281.727,290.580,293.004,292.195,292.218,290.401,288.665,287.858,286.434,286.761,287.653,
    91,09/07/18 00:37:38,51,  0.00, 90.00,300.291, 51.409, 53.327, 52.676, 50.525,, 46.506, 43.785, 43.243, 39.179, 35.868, 34.168, 31.905,,, 30.943,, 29.055,, 29.469,, 29.806,122.156,139.497,164.208,196.435,232.104,264.292,284.547,292.755,294.014,292.628,292.453,289.367,291.103,290.869,
    92,09/07/18 00:37:57,51,  0.00,160.20,300.309,110.981,114.652,113.392,109.013,,100.057, 94.474, 91.556, 82.684, 75.575, 70.153, 65.283,,, 61.337,, 57.395,, 56.767,, 57.218,218.253,237.355,258.989,277.387,289.052,293.608,293.811,293.273,291.691,289.742,289.015,287.249,288.138,288.107,
    93,09/07/18 00:38:21,41, 287.9210,  83.5100,1014.4040, 244.0900,1
    94,09/07/18 00:38:58,51,  0.00, 19.80,300.236,117.296,121.323,120.723,115.570,,105.907, 99.992, 96.971, 88.397, 80.053, 74.774, 68.997,,, 65.122,, 61.209,, 59.297,, 60.414,229.385,247.700,266.287,281.969,290.273,293.035,292.865,291.705,290.497,288.700,287.518,286.120,287.024,287.385,
    95,09/07/18 00:39:17,51,  0.00, 90.00,300.222, 51.752, 53.596, 53.302, 50.333,, 46.510, 43.891, 42.733, 39.526, 35.949, 34.089, 31.671,,, 30.602,, 28.988,, 29.084,, 29.565,122.106,139.813,164.252,196.162,232.239,264.603,285.219,292.274,294.112,292.586,292.150,289.514,290.801,291.297,
    96,09/07/18 00:39:36,51,  0.00,160.20,300.233,111.023,115.130,114.089,109.129,,100.337, 94.358, 91.469, 83.337, 75.661, 70.616, 65.736,,, 61.336,, 58.039,, 56.244,, 57.833,218.846,237.896,258.972,277.843,289.268,293.694,294.053,293.250,291.885,289.949,288.535,286.700,287.518,288.509,
    97,09/07/18 00:40:01,41, 287.9760,  83.9700,1014.5660, 258.3000,1
    98,09/07/18 00:40:38,51,  0.00, 19.80,300.197,117.552,121.252,120.489,114.884,,105.954, 99.237, 96.072, 87.900, 79.555, 74.483, 68.344,,, 64.298,, 60.077,, 58.568,, 59.750,228.674,247.396,266.348,281.943,290.595,293.308,293.182,291.624,290.356,288.415,288.015,285.896,287.014,287.291,